STARLINK-1402, 45685

Orbit data source: Space-Track

STARLINK-1402, 45685 is a payload satellite owned by SpaceX/Seattle (US) in LEO that was launched on Thu, 04 Jun 2020 UTC via an FALCON 9 launch vehicle from the Air Force Eastern Test Range (AFETR). Payload-class satellites include a variety of spacecraft equipped with specific instruments for various scientific and technological missions. These include communications satellites like Starlink; space stations such as the ISS; scientific satellites like the Hubble; Earth observation satellites from companies like Planet Labs, Umbra, and HawkEye 360; GPS; miniature CubeSats for education and research; and military/defense satellites.

Loading next visibility...
Identifier
45685, 2020-035AE
Orbit
LEO
Last TLE update
4 hours ago
Origin
Manufacturer
SpaceX/Seattle
Mission
Operational Commercial Communications
Bus & Motor
STARLINK, Unknown motor
Mass
260 kg wet, ~248 kg dry
Launch date (UTC)
2020-06-04 (5 years ago)
Launch vehicle
FALCON 9
Launch site
Air Force Eastern Test Range (AFETR)
Object type
Payload
Rocket body
Debris
Shape & HBR
Box + 1 Pan, 4.4 m
Radar Cross Section
13.562 m², Large (>1 m²)

Expand to show TLE details & history

TLE from 4 hours ago
0 STARLINK-1402
1 45685U 20035AE  25199.80113514  .00000613  00000-0  60028-4 0  9997
2 45685  53.0558  20.9996 0001584  79.2399 280.8768 15.06400761283291
Epoch: 2025-07-18T19:13Z
TLE epoch observation values (Epoch: 2025-07-18T19:13:38.076Z)
Latitude
-0.00002°
Longitude
155.74355°
Altitude
547.882 km
Speed
7.589 km/s
True Right ascension
01h 23m 59s
True Declination
0° 00' 00"
Sunlit
Object was in daylight at epoch
Visualization orbit readout
Latitude
-51.37121°
Longitude
85.53392°
Altitude
566.01 km
Speed
7.577 km/s
Apparent Right ascension
22h 42m 35s
Apparent Declination
-49° 14' 57"
Sunlit
Object is in full shadow
Visualization observer readout
Local Sidereal Time
12:27:22
Azimuth
125.455° SE
Elevation
-69.284°
Doppler factor
1
Orbital elements
Apogee altitude
548.577 km
Perigee altitude
546.383 km
Semi-major axis
6,925.617 km
Eccentricity
0.00016
Inclination
53.0558°
RAAN
20.9996°
Arg. of periapsis
79.2399°
True anomaly
280.85897°
Mean anomaly
280.8768°
Eccentric anomaly
280.86789°
Mean motion
3.76578 °/min
Orbital period
95.6 mins
BSTAR
0.000060028
Loading maneuver chart data...
Loading SW <> Apogee altitude chart data...
|